STARLINK-32147 (60152 NORAD) Tracking and Keplerian Element Data

This shows tracking and keplerian element data for the satellite.

Feedback or suggestion? Click here.




ElementValue
Catalog60152
NameSTARLINK-32147
Epoch Orbit1766
Epoch Day286.02683043
Epoch Year2024
RAAN190.701
Inclination53.1583
Eccentricity0.0001315
Argument of Perigee110.0506
Mean Anonmoly250.064
Mean Motion15.39554524
Decay Rate-0.00033192
L11 60152U 24120T 24286.02683043 -.00033192 00000+0 -82519-3 0 9998
L22 60152 53.1583 190.7010 0001315 110.0506 250.0640 15.39554524 17662



Live tracking and technical data element details for STARLINK-32147 (NORAD 60152). STARLINK-32147 can be tracked NOW for your location showing map with azimuth and elevation plus other details from your city location.







IsCatalogInMostPopularTable: catalog: 60152, numindb: 12
Update: records affected: 1



GetName: 60152 STARLINK-32147

Hit Count: updated at: Thu, 23 Jan 2025 14:35:07 GMT